Regional Weather Roundup
Issued by NWS

Home | Current Version | Previous Version | Text Only | Print | Product List | Glossary On
Versions: 1 2 3 4 5 6 7 8 9 10 11 12 13 14 15 16 17 18 19 20 21 22 23 24 25 26 27 28 29 30 31 32 33 34 35 36 37 38 39 40 41 42 43 44 45 46 47 48 49 50
719
ASUS43 KLSX 240057
RWRMO

WEATHER SUMMARY FOR MISSOURI
NATIONAL WEATHER SERVICE SPRINGFIELD MO
800 PM CDT WED MAY 23 2018

NOTE: "FAIR" INDICATES FEW OR NO CLOUDS BELOW 12,000 FEET WITH NO
       SIGNIFICANT WEATHER AND/OR OBSTRUCTIONS TO VISIBILITY.
       CURRENT SKY AND/OR WEATHER CONDITIONS ARE NOT AVAILABLE FOR
       CHILLICOTHE AND FARMINGTON.

MOZ001>031-035>038-043-044-053-054-240200-
...NORTHERN AND WESTERN MISSOURI...

CITY           SKY/WX    TMP DP  RH WIND       PRES   REMARKS
KANSAS CTY INT CLOUDY    82  64  54 S10       30.05R
LEE`S SUMMIT   CLOUDY    82  66  58 S8        30.06R
ST JOSEPH      CLOUDY    85  65  51 SE9       30.03R
CHILLICOTHE      N/A     84  66  54 VRB7      30.06R

$$
MOZ066>068-077>081-088>096-101>105-240200-
...SOUTHWEST MISSOURI...

CITY           SKY/WX    TMP DP  RH WIND       PRES   REMARKS
SPRINGFIELD    CLOUDY    69  66  90 SE7       30.09F
JOPLIN         CLOUDY    72  67  84 SE3       30.07S
BRANSON        MOCLDY    68  68 100 CALM      30.13F FOG

$$
MOZ032>034-039>042-045>050-055>058-069>072-240200-
...CENTRAL MISSOURI...

CITY           SKY/WX    TMP DP  RH WIND       PRES   REMARKS
COLUMBIA       NOT AVBL
JEFFERSON CITY PTCLDY    83  66  56 E8        30.07S
ROLLA          CLOUDY    77  66  68 E7        30.12R
SEDALIA        CLOUDY    80  68  66 S13       30.09R
WARRENSBURG    CLOUDY    79  64  61 S13G24    30.06R

$$
MOZ051-052-059>065-240200-
...EAST CENTRAL MISSOURI...

CITY           SKY/WX    TMP DP  RH WIND       PRES   REMARKS
ST LOUIS INTL  MOCLDY    81  64  56 E6        30.11R

$$
MOZ072>076-082>087-097>100-106>115-240200-
...SOUTH CENTRAL AND SOUTHEAST MISSOURI...

CITY           SKY/WX    TMP DP  RH WIND       PRES   REMARKS
CAPE GIRARDEAU FAIR      79  67  66 NE3       30.08R
POPLAR BLUFF   FAIR      79  72  79 CALM      30.08R
WEST PLAINS    CLOUDY    68  65  90 W7        30.16S

$$




USA.gov is the U.S. government's official web portal to all federal, state and local government web resources and services.